OPS 4682 DEB, 1389

Orbit data source: Space-Track

OPS 4682 DEB, 1389 is space debris in LEO originally from a launch on Sat, 03 Apr 1965 UTC launched from the Air Force Western Test Range (AFWTR). Debris objects in space refer to the collection of defunct objects orbiting the Earth. Examples of debris include non-operational satellites, rocket bodies, and fragments generated from explosions, collisions, or faulty payload assembly.

Loading next visibility...
Identifier
1389, 1965-027D
Orbit
LEO
Last TLE update
12 hours ago
Origin
Manufacturer
Unknown
Mission
Spacecraft
Bus & Motor
Unknown
Mass
7 kg wet, 7 kg dry
Launch date (UTC)
1965-04-03 (60 years ago)
Launch vehicle
Unknown
Launch site
Air Force Western Test Range (AFWTR)
Object type
Payload
Rocket body
Debris
Shape & HBR
Half Cyl, 2 m
Radar Cross Section
2.370 m², Medium (>0.1 m² and < 1m²)

Expand to show TLE details & history

TLE from 12 hours ago
0 OPS 4682 DEB
1 01389U 65027D   25132.79984006  .00000955  00000-0  25580-2 0  9998
2 01389  89.8450 225.0915 0031255 153.9645 325.8793 13.14150511858088
Epoch: 2025-05-12T19:11Z
Definitive object data (Epoch: 2025-05-12T19:11:46.181Z)
Latitude
60.44529°
Longitude
-113.93062°
Altitude
1,197.907 km
Speed
7.27 km/s
True Right ascension
02h 59m 16s
True Declination
60° 18' 22"
Sunlit
Object was in daylight at TLE epoch
Visualization TLE readout
Latitude
-73.49334°
Longitude
65.8137°
Altitude
1,250.634 km
Speed
7.221 km/s
Apparent Right ascension
03h 46m 08s
Apparent Declination
-76° 23' 08"
Sunlit
Object is in full shadow
Visualization observer readout
Local Sidereal Time
15:25:01
Azimuth
182.085° SSW
Elevation
-53.457°
Doppler factor
1
Orbital elements
Apogee altitude
1,227.947 km
Perigee altitude
1,180.549 km
Semi-major axis
7,582.385 km
Eccentricity
0.0031255
Inclination
89.845°
RAAN
225.0915°
Arg. of periapsis
153.9645°
True anomaly
325.67775°
Mean anomaly
325.8793°
Eccentric anomaly
325.77859°
Mean motion
3.28726 °/min
BSTAR
0.002558
Orbital period
109.51 mins
Loading maneuver chart data...
Loading SW <> Apogee altitude chart data...
Loading historical data...
Loading historical data...
Loading historical data...
Loading historical data...
Loading historical data...
Loading historical data...
Loading historical data...

OPS 4682 DEB Visibility forecast

Observer location: undefined°, undefined°

Span
Click to sort rows by Start time (UTC) header in descending order
Start Az.
Max El. time (UTC)
Max El. Az.
Max El.
End time (UTC)
End Az.
12 mins2025-05-13 07:29:19.341Z215.458° SW2025-05-13 07:35:19.341Z280.071° WNW30.249°2025-05-13 07:41:19.341Z339.547° N
9 mins2025-05-13 17:09:19.341Z37.749° NE2025-05-13 17:13:19.341Z79.734° E22.754°2025-05-13 17:18:19.341Z128.791° SE
12 mins2025-05-13 18:57:19.341Z350.822° N2025-05-13 19:03:19.341Z270.572° WNW39.755°2025-05-13 19:09:19.341Z203.675° SW
11 mins2025-05-14 05:26:19.341Z131.059° SE2025-05-14 05:31:19.341Z74.644° E29.488°2025-05-14 05:37:19.341Z16.689° NNE
|